Location: Unspecified
(49.2170°N, 0.0000°E)
Time: 17:36:08
(UTC+00:00)

Envisat - Pass Details

Date: 27 November 2020
Orbit: 764 x 766 km, 98.1° (Epoch: 20 January)

Event Time Altitude Azimuth Distance (km) Brightness Sun altitude
Rises 17:24:15 0° 181° (S) 3,220 6.5 -12.3°
Reaches altitude 10° 17:26:37 10° 187° (S) 2,299 5.8 -12.6°
Maximum altitude 17:31:31 48° 261° (W) 996 4.1 -13.4°
Drops below altitude 10° 17:36:27 10° 336° (NNW) 2,316 5.6 -14.2°
Sets 17:38:52 0° 342° (NNW) 3,247 6.3 -14.5°
